Regional Weather Roundup
Issued by NWS Wakefield, VA

Home | Current Version | Previous Version | Graphics & Text | Print | Product List | Glossary On
Versions: 1 2 3 4 5 6 7 8 9 10 11 12 13 14 15 16 17 18 19 20 21 22 23 24 25 26 27 28 29 30 31 32 33 34 35 36 37 38 39 40 41 42 43 44 45 46 47 48 49 50
000
ASUS41 KAKQ 271110
RWRAKQ

REGIONAL WEATHER ROUNDUP
NATIONAL WEATHER SERVICE WAKEFIELD VA
600 AM EST THU NOV 27 2014

Note: "fair" indicates few or no clouds below 12,000 feet with no
significant weather and/or obstructions to visibility. * = Denotes
station may not report precipitation (e.g., rain,snow,etc.),
thunder or fog.

VAZ042-051-052>054-056-271200-
NORTHERN VIRGINIA

CITY           SKY/WX    TMP DP  RH WIND       PRES   REMARKS
WASH NATIONAL  CLOUDY    39  32  76 CALM      30.04R
DULLES         MOCLDY    32  32 100 CALM      30.02S
FORT BELVOIR   CLOUDY    32  32 100 CALM      30.03S
QUANTICO       CLOUDY    35  32  88 NW5       30.05R
FREDERICKSBRG* CLOUDY    36  36 100 CALM      30.03S FOG
STAFFORD*      FOG       33  33 100 CALM      30.07S VSB 1
WARRENTON      CLOUDY    34  34 100 CALM      30.02S FOG
CULPEPER*      CLOUDY    34  34 100 CALM      30.03S FOG
MANASSAS*      CLOUDY    34  34 100 CALM      30.03S
LEESBURG*      CLOUDY    36  36 100 CALM      30.03R
WINCHESTER     FOG       32  30  93 CALM      30.00S VSB 1/2
FRONT ROYAL*   CLOUDY    32  32 100 CALM      30.00S VSB 3/4
LURAY*         FOG       32  32 100 CALM      30.00R VSB 1/4
$$

VAZ048-049-060>072-079>083-271200-
CENTRAL AND SOUTH CENTRAL VIRGINIA

CITY           SKY/WX    TMP DP  RH WIND       PRES   REMARKS
RICHMOND       LGT RAIN  39  37  92 CALM      30.02F FOG
CHESTERFIELD*  CLOUDY    39  28  65 CALM      30.03S
PETERSBURG*    MIX PCPN  40  39  98 CALM      30.02F
HANOVER        CLOUDY    36  35  96 CALM      30.04S FOG
TAPPAHANNOCK*  DRIZZLE   34  32  92 CALM      30.03F
QUINTON*       CLOUDY    37  37  99 MISG      30.03S
CHARLOTTSVILLE CLOUDY    33  32  96 N5        30.00R FOG
GORDONSVILLE*  FOG       33  33  99 CALM      30.00S VSB 1/2
ORANGE*        CLOUDY    36  36 100 CALM      30.02S FOG
LOUISA*        CLOUDY    36  36 100 CALM      29.99F FOG
BUMPASS*       CLOUDY    35  35  99 CALM      30.01F VSB 1/2
FARMVILLE*     CLOUDY    40  40 100 CALM        N/A
CREWE*         CLOUDY    39  37  95 CALM      30.01S
FORT PICKETT*  CLOUDY    39  38  99 SW5       30.01S
CHASE CITY*    CLOUDY    41  41 100 CALM      30.01F
CLARKSVILLE*   CLOUDY    39  39 100 CALM      30.00F
SOUTH HILL*    CLOUDY    38  38  98 SW3       30.08S
LAWRENCEVILLE* CLOUDY    38  38 100 CALM      30.02S
$$

VAZ088>098-271200-
SOUTHEAST VIRGINIA

CITY           SKY/WX    TMP DP  RH WIND       PRES   REMARKS
NORFOLK        CLOUDY    39  36  89 SW7       30.05S
VIRGINIA BEACH CLOUDY    40  37  89 SW8       30.05S
NORFOLK NAVAL  CLOUDY    42  36  79 SW6       30.06F
WEST POINT*    CLOUDY    38  37  93 CALM      30.06R
SALUDA*        PTSUNNY   35  34  96 CALM      30.03F
NEWPORT NEWS   LGT RAIN  43  39  86 S3        30.05S
LANGLEY AFB    CLOUDY    39 N/A N/A SW6       30.06S
FORT EUSTIS    CLOUDY    40  40 100 S5        30.03S
WILLIAMSBURG*  CLOUDY    43  41  93 SW5       30.05R
HR EXEC AP*    CLOUDY    37  34  87 CALM      30.07F
FRANKLIN*      CLOUDY    37 N/A N/A S3        30.05F
WAKEFIELD      CLOUDY    39  37  92 S5        30.04F
$$

VAZ020-022-025-037-045-271200-
WEST CENTRAL AND SOUTHWEST VIRGINIA

CITY           SKY/WX    TMP DP  RH WIND       PRES   REMARKS
STAUNTON*      FOG       29  27  94 CALM      30.00S VSB 3/4
WAYNESBORO*    CLOUDY    30  29  99 CALM      29.97S
HOT SPRINGS VA   N/A    N/A N/A N/A MISG        N/A
LYNCHBURG      MOCLDY    35  35 100 CALM      30.00S
DANVILLE       LGT RAIN  40  38  93 E3        30.01S
SOUTH BOSTON*  CLOUDY    39  38  95 CALM      30.02S
MARTINSVILLE   RAIN      38  38 100 CALM      30.02R
ROANOKE        CLOUDY    35  33  92 NE3       30.00S
BLACKSBURG     CLOUDY    34  34 100 CALM      29.97R FOG
DUBLIN*        CLOUDY    35  35 100 CALM      29.97R FOG
MARION*        LGT SNOW  33  32  96 N5        29.98R
HILLSVILLE*    CLOUDY    32  30  92 N3        29.94R
RICHLANDS*     LGT SNOW  35  33  94 CALM      29.96R
WISE*          LGT SNOW  32  32 100 CALM      29.98R
ABINGDON*      LGT SNOW  34  34  99 W3        29.98R
$$

MDZ021>025-VAZ099-100-271200-
SOUTHERN MARYLAND AND THE DELMARVA PENINSULA

CITY           SKY/WX    TMP DP  RH WIND       PRES   REMARKS
PATUXENT RIVER MOCLDY    34  31  88 W6        30.03S
BAY BRIDGE APT   N/A     36  32  87 NW8       30.03R
LEONARDTOWN    CLOUDY    32  32 100 CALM      30.04S
DOVER          CLOUDY    35  33  94 W6        29.98R
GEORGETOWN     CLOUDY    35  32  88 CALM      30.02R
EASTON         PTCLDY    37  37 100 W3        30.06R
CAMBRIDGE      PTCLDY    36  34  93 CALM      30.02R
SALISBURY      MOCLDY    37  33  85 W5        30.02R
OCEAN CITY     PTCLDY    35  33  92 W5        30.02R
WALLOPS ISLAND MOCLDY    38  34  85 NW8       30.03R
ACCOMACK*      CLOUDY    37  32  81 W6        30.03S
$$

NCZ012>017-030>032-271200-
NORTH CENTRAL AND EASTERN NORTH CAROLINA

CITY           SKY/WX    TMP DP  RH WIND       PRES   REMARKS
ROANOKE RAPIDS CLOUDY    37  37 100 CALM      30.04S FOG
RALEIGH        LGT RAIN  41  38  89 E7        30.00F
ELIZABETH CITY PTCLDY    40  36  86 CALM      30.07R
AHOSKIE*       CLOUDY    37  37  97 CALM      30.06S
EDENTON*       MOCLDY    40  38  91 S5        30.06F
CURRITUCK*     CLOUDY    39  37  94 CALM      30.07S
KILL DEVIL HLS PTCLDY    38  37  95 W3        30.06S
MANTEO         CLOUDY    41  38  87 SW6       30.08S
CAPE HATTERAS  PTCLDY    38  36  92 CALM      30.08S
TARBORO*       CLOUDY    38  37  96 SE3       30.06F
GOLDSBORO      CLOUDY    38  38  99 E2        30.03S
WASHINGTON     MOCLDY    38  37  93 CALM      30.06S
GREENVILLE     CLOUDY    39  37  93 SE3       30.06F
NEW BERN       MOCLDY    38  34  85 CALM      30.08F
WILMINGTON     MOCLDY    37  36  96 CALM      30.05S
$$

VAZ048-271200-
ELSEWHERE

CITY           SKY/WX    TMP DP  RH WIND       PRES   REMARKS
HARRISBURG PA  CLOUDY    34  28  79 NW6       30.00R
BALTIMORE      MOCLDY    34  31  88 CALM      30.02R
ANNAPOLIS      CLOUDY    35  30  82 SW5       30.02R
ANDREWS AFB    MOCLDY    36  33  87 W3        30.02R
PHILADELPHIA   CLOUDY    36  31  82 NW6       29.99R
WILDWOOD NJ*   CLOUDY    37  28  70 NW5       29.97R
HENDERSON NC   DRIZZLE   39  38  96 CALM      30.02R
GREENSBORO     CLOUDY    41  40  96 E5        29.95F
ROCKY MOUNT    CLOUDY    39  37  92 S5        30.04F
$$

VAZ100-271200-
MARINE

STATION/POSITION TIME  TEMP    WIND        PRES    WAVE   SWELL
                       AIR SEA DIR/SP/G            HT/PER HT/PER
                 (UTC) (F)     (DEG/KT/KT) (MB)    (FT/S) (FT/S)
CAPE MAY NJ      1100   39 47  320/  5/ 11 1014.7F
LEWES DE         1100   36 47  270/  9/ 11 1015.8R
15NM E FENWICK I 1100   41 54              1015.8R   7/ 8
OCEAN-CITY-INLET 1100   37 48  300/  4/  6 1016.2R
WACHAPREAGUE VA  1100   38 47  280/  1/  3 1016.9F
THOMAS POINT MD  1100   36 47  280/  7/  8 1018.0R
GOOSES REEF MD   1100   38     300/ 10/ 12 1017.3R
COVE POINT MD    1100   37     320/  6/  8 1016.6F
SOLOMONS ISLAND  1100      49                N/A
BISHOPS HEAD MD  1100   39 44  310/  7/  9 1016.1S
PINEY POINT MD   1100          270/  8/  9   N/A
POTOMAC MD       1100   41     280/  8/ 10 1015.9F
CAMBRIDGE MD     1100   37 45  260/  3/  5 1016.5R
LEWISETTA VA     1100   38 47  290/  4/  5 1016.6F
RAPPAHANNOCK LGT 1100          290/ 10/ 12 1017.5S
STINGRAY PT      1100   40     260/  6/  8 1017.6F
YORK RVR RNG VA  1100   41     260/  9/ 10 1016.9R
YORKTOWN VA      1100   40 51  220/  7/  8 1017.0R
JAMESTOWN VA     1100   39     230/  2/  4   N/A
DOMINION TERM VA 1100   40     220/  5/  7 1017.6F
KIPTOPEKE VA     1100      55  270/ 11/ 13   N/A
CHES BAY BRIDGE  1100   40 51  230/ 11/ 12 1016.9F
CAPE HENRY VA    1100   38     220/  6/  9 1016.3S
CHESAPEAKE LGHT  1000   44     260/ 11/ 13 1018.0S
WILLOUBY STN VA  1100   41     230/ 10/ 11 1016.1S
S CRANEY ISL VA  1100          200/  2/  4 1017.5F
CAPE HENRY BUOY  1100      56                N/A     4/10   2/11
1ST LANDING BUOY 1100   42     250/ 12/ 14 1017.2R
CAPE CHARLES BUO 1100      54                N/A     4/10   3/10
64NM E OF VA BCH 1100   47 62  310/ 12/ 16 1016.9R   9/10   8/10
DUCK PIER NC     1100   42 54  290/  3/  5 1017.4F
44100 DUCK FRF   1100      58                N/A     6/ 9   2/11
44056 DUCK FRF   1100      56                N/A     5/ 9   2/11
OREGON INLET NC  1100   42 56  260/  2/  5 1018.2F
HATTERAS NC      1100   43 60  300/  3/  4 1018.9F
DIAMOND SHLS NC  1100   48     290/  4/  8 1018.7R   6/ 9   5/ 9
CAPE LOOKOUT NC  1000   46     190/  3/  3 1018.5F
$$


USA.gov is the U.S. government's official web portal to all federal, state and local government web resources and services.